M7ANY Weather Reports


time (UTC)temp
F
wind
direction
speed
knots
gust
knots
rain 1hr
in
rain 24hr
in
rain mn
in
humidity
%
barometer
mb
20260506113503 54 35 7.0 13.9 0.00 0.00 0.00 63 1014.8
20260506113003 55 32 7.0 13.9 0.00 0.00 0.00 62 1014.8
20260506112504 55 19 7.0 12.2 0.00 0.00 0.00 62 1014.9
20260506112003 55 17 7.0 12.2 0.00 0.00 0.00 62 1014.9
20260506111504 55 18 7.0 13.0 0.00 0.00 0.00 62 1014.8
20260506111003 56 13 7.0 13.0 0.00 0.00 0.00 60 1014.8
20260506110503 57 30 6.1 13.0 0.00 0.00 0.00 58 1014.8
20260506110215 58 37 6.1 13.0 0.00 0.00 0.00 58 1015.0
20260506105504 58 23 6.1 13.9 0.00 0.00 0.00 57 1014.8
20260506105004 58 22 5.2 13.0 0.00 0.00 0.00 60 1014.7
20260506104503 56 37 5.2 10.4 0.00 0.00 0.00 64 1014.8
20260506104004 54 41 6.1 12.2 0.00 0.00 0.00 63 1014.8
20260506103503 54 38 7.0 12.2 0.00 0.00 0.00 62 1014.8
20260506103003 55 29 7.0 12.2 0.00 0.00 0.00 62 1014.8
20260506102503 55 16 7.0 12.2 0.00 0.00 0.00 65 1014.8
20260506102003 55 12 7.0 14.8 0.00 0.00 0.00 64 1014.8
20260506101503 55 14 7.8 14.8 0.00 0.00 0.00 62 1014.9
20260506101004 56 19 7.8 13.9 0.00 0.00 0.00 61 1014.8
20260506100504 57 22 7.0 13.9 0.00 0.00 0.00 61 1014.7
20260506100004 57 12 7.0 14.8 0.00 0.00 0.00 63 1014.7
20260506095505 56 4 7.0 15.6 0.00 0.00 0.00 61 1014.7
20260506095004 57 22 7.0 15.6 0.00 0.00 0.00 61 1014.7
20260506094503 58 42 7.0 13.0 0.00 0.00 0.00 61 1014.8
20260506094004 57 41 7.0 13.0 0.00 0.00 0.00 61 1014.8
20260506093716 57 39 7.0 13.0 0.00 0.00 0.00 62 1014.8
20260506093004 56 27 7.8 13.9 0.00 0.00 0.00 66 1014.7
20260506092503 55 29 7.0 11.3 0.00 0.00 0.00 65 1014.7
20260506092003 55 35 6.1 12.2 0.00 0.00 0.00 66 1014.8
20260506091504 54 30 6.1 12.2 0.00 0.00 0.00 71 1014.8
20260506091003 53 26 5.2 10.4 0.00 0.00 0.00 72 1014.9
20260506090503 52 26 5.2 11.3 0.00 0.00 0.00 72 1014.8
20260506090003 53 21 6.1 12.2 0.00 0.00 0.00 69 1014.9
20260506085503 54 24 7.0 13.0 0.00 0.00 0.00 69 1014.9
20260506085004 54 31 7.0 13.9 0.00 0.00 0.00 70 1014.9
20260506084504 53 36 7.8 13.9 0.00 0.00 0.00 71 1015.0
20260506084003 53 36 7.0 13.9 0.00 0.00 0.00 74 1015.0
20260506083716 52 31 7.0 13.9 0.00 0.00 0.00 74 1014.9
20260506083003 51 13 6.1 12.2 0.00 0.00 0.00 78 1014.9
20260506082504 50 12 7.0 12.2 0.00 0.00 0.00 78 1014.9
20260506082215 50 11 5.2 11.3 0.00 0.00 0.00 81 1015.0
20260506081503 47 6 3.5 7.8 0.00 0.00 0.00 87 1015.0
20260506081004 46 6 4.3 9.6 0.00 0.00 0.00 86 1015.0
20260506080503 46 5 3.5 9.6 0.00 0.00 0.00 86 1015.0
20260506073503 45 2 3.5 8.7 0.00 0.00 0.00 88 1015.0
20260506073004 45 7 4.3 11.3 0.00 0.00 0.00 87 1015.0
20260506072504 44 8 4.3 11.3 0.00 0.00 0.00 87 1015.0
20260506072216 44 12 4.3 9.6 0.00 0.00 0.00 88 1015.0
20260506071503 44 15 5.2 11.3 0.00 0.00 0.00 87 1015.0
20260506071004 44 13 5.2 11.3 0.00 0.00 0.00 87 1014.9
20260506070503 44 8 6.1 12.2 0.00 0.00 0.00 87 1014.9
20260506062004 43 11 5.2 10.4 0.00 0.00 0.00 85 1014.6
20260506061503 43 10 4.3 8.7 0.00 0.00 0.00 86 1014.6
20260506061003 43 4 4.3 8.7 0.00 0.00 0.00 86 1014.6
20260506060503 42 1 4.3 8.7 0.00 0.00 0.00 86 1014.5
20260506051004 41 2 3.5 8.7 0.00 0.00 0.00 87 1014.4
20260506050503 41 1 3.5 7.0 0.00 0.00 0.00 87 1014.3
20260506045004 41 360 3.5 9.6 0.00 0.00 0.00 87 1014.3
20260506044504 41 5 3.5 10.4 0.00 0.00 0.00 87 1014.2
20260506044003 41 5 3.5 10.4 0.00 0.00 0.00 86 1014.3
20260506043505 41 1 3.5 7.8 0.00 0.00 0.00 86 1014.3
20260506043217 41 360 3.5 9.6 0.00 0.00 0.00 86 1014.3
20260506042504 41 5 4.3 9.6 0.00 0.00 0.00 86 1014.3
20260506042003 42 4 4.3 9.6 0.00 0.00 0.00 86 1014.3
20260506041716 42 359 4.3 9.6 0.00 0.00 0.00 86 1014.3
20260506041003 42 356 4.3 8.7 0.00 0.00 0.00 87 1014.3
20260506040504 42 2 3.5 8.7 0.00 0.00 0.00 86 1014.3
20260506040004 42 357 2.6 7.8 0.00 0.00 0.00 86 1014.3
20260506035503 42 351 2.6 7.0 0.00 0.00 0.00 86 1014.3
20260506035003 42 353 2.6 7.0 0.00 0.00 0.00 86 1014.3
20260506034503 42 352 2.6 7.0 0.00 0.00 0.00 86 1014.4
20260506034003 42 356 2.6 8.7 0.00 0.00 0.00 86 1014.4
20260506033503 42 358 2.6 8.7 0.00 0.00 0.00 85 1014.4
20260506033005 43 4 2.6 7.0 0.00 0.00 0.00 85 1014.4
20260506032504 43 10 3.5 8.7 0.00 0.00 0.00 85 1014.5
20260506032003 43 6 4.3 9.6 0.00 0.00 0.00 85 1014.5
20260506031503 43 5 4.3 9.6 0.00 0.00 0.00 84 1014.4
20260506031214 43 5 3.5 7.8 0.00 0.00 0.00 84 1014.4
20260506030503 44 4 4.3 9.6 0.00 0.00 0.00 84 1014.5
20260506030004 44 5 4.3 10.4 0.00 0.00 0.00 84 1014.5
20260506025504 44 7 4.3 10.4 0.00 0.00 0.00 83 1014.5
20260506025003 44 8 3.5 8.7 0.00 0.00 0.00 83 1014.4
20260506024504 45 10 4.3 11.3 0.00 0.00 0.00 83 1014.4
20260506024217 45 9 4.3 11.3 0.00 0.00 0.00 83 1014.5
20260506023504 45 9 4.3 9.6 0.00 0.00 0.00 83 1014.5
20260506023004 45 6 5.2 9.6 0.00 0.00 0.00 83 1014.5
20260506022503 45 9 5.2 9.6 0.00 0.00 0.00 83 1014.5
20260506022003 45 12 5.2 9.6 0.00 0.00 0.00 83 1014.5
20260506021503 45 8 4.3 9.6 0.00 0.00 0.00 83 1014.5
20260506021003 45 4 4.3 8.7 0.00 0.00 0.00 83 1014.6
20260506020713 45 2 4.3 8.7 0.00 0.00 0.00 83 1014.6
20260506020004 45 7 4.3 11.3 0.00 0.00 0.00 83 1014.6
20260506015504 45 9 4.3 11.3 0.00 0.00 0.00 83 1014.7
20260506015217 45 11 4.3 11.3 0.00 0.00 0.00 83 1014.6
20260506014715 45 11 4.3 9.6 0.00 0.00 0.00 83 1014.6
20260506014004 46 13 5.2 11.3 0.00 0.00 0.00 83 1014.6
20260506013504 46 9 6.1 11.3 0.00 0.00 0.00 83 1014.6
20260506013004 46 8 6.1 10.4 0.00 0.00 0.00 83 1014.7
20260506012504 46 11 4.3 10.4 0.00 0.00 0.00 83 1014.7
20260506012004 46 9 4.3 10.4 0.00 0.00 0.00 83 1014.8
20260506011504 46 4 5.2 9.6 0.00 0.00 0.00 82 1014.8
20260506011003 46 3 5.2 13.9 0.00 0.00 0.00 82 1014.7
20260506010503 46 5 4.3 13.9 0.00 0.00 0.00 82 1014.7
20260506010003 46 6 5.2 12.2 0.00 0.00 0.00 82 1014.8
20260506005504 46 8 5.2 12.2 0.00 0.00 0.00 82 1014.8
20260506005003 46 13 5.2 9.6 0.00 0.00 0.00 82 1014.8
20260506004504 46 14 5.2 11.3 0.00 0.00 0.00 82 1014.8
20260506004004 46 11 6.1 11.3 0.00 0.00 0.00 82 1014.9
20260506003716 46 9 6.1 12.2 0.00 0.00 0.00 82 1014.8
20260506003003 46 7 5.2 12.2 0.00 0.00 0.00 81 1014.9
20260506002504 46 10 4.3 10.4 0.00 0.00 0.00 82 1014.9
20260506002004 46 10 5.2 10.4 0.00 0.00 0.00 81 1014.9
20260506001504 46 8 5.2 10.4 0.00 0.00 0.00 81 1014.9
20260506001003 46 9 4.3 9.6 0.00 0.00 0.00 81 1014.9
20260506000503 46 12 5.2 10.4 0.00 0.00 0.00 80 1014.9
20260506000003 46 12 5.2 10.4 0.00 0.00 0.00 80 1014.9
20260505235504 46 12 5.2 10.4 0.00 0.00 0.00 80 1015.0
20260505235003 47 13 6.1 11.3 0.00 0.00 0.00 79 1014.9
20260505234504 47 14 6.1 11.3 0.00 0.00 0.00 79 1015.0
20260505234003 47 13 6.1 11.3 0.00 0.00 0.00 79 1015.1
20260505233503 47 14 6.1 10.4 0.00 0.00 0.00 79 1015.0
20260505233004 47 16 6.1 11.3 0.00 0.00 0.00 78 1015.0
20260505232504 47 13 6.1 11.3 0.00 0.00 0.00 78 1015.1
20260505232003 47 13 6.1 11.3 0.00 0.00 0.00 77 1015.1
20260505231503 47 18 6.1 12.2 0.00 0.00 0.00 77 1015.2
20260505231217 47 16 5.2 12.2 0.00 0.00 0.00 77 1015.2
20260505230503 47 10 4.3 9.6 0.00 0.00 0.00 77 1015.2
20260505230218 47 9 4.3 9.6 0.00 0.00 0.00 77 1015.3
20260505225504 47 12 4.3 8.7 0.00 0.00 0.00 76 1015.2
20260505225004 48 19 4.3 11.3 0.00 0.00 0.00 75 1015.2
20260505224503 48 19 6.1 12.2 0.00 0.00 0.00 75 1015.2
20260505224004 48 16 6.1 12.2 0.00 0.00 0.00 75 1015.2
20260505223504 48 13 5.2 11.3 0.00 0.00 0.00 76 1015.1
20260505223004 48 11 4.3 11.3 0.00 0.00 0.00 76 1015.2
20260505222503 48 16 4.3 8.7 0.00 0.00 0.00 76 1015.2
20260505222004 48 23 4.3 9.6 0.00 0.00 0.00 75 1015.2
20260505221504 48 19 5.2 13.9 0.00 0.00 0.00 75 1015.2
20260505221004 48 15 4.3 13.9 0.00 0.00 0.00 75 1015.2
20260505220715 48 13 3.5 10.4 0.00 0.00 0.00 77 1015.3
20260505220003 48 18 3.5 8.7 0.00 0.00 0.00 76 1015.3
20260505215503 48 21 4.3 10.4 0.00 0.00 0.00 76 1015.3
20260505215003 48 21 5.2 11.3 0.00 0.00 0.00 75 1015.4
20260505214503 48 23 4.3 11.3 0.00 0.00 0.00 75 1015.4
20260505214004 49 26 5.2 9.6 0.00 0.00 0.00 75 1015.3
20260505213503 49 23 6.1 10.4 0.00 0.00 0.00 75 1015.3
20260505213004 49 29 6.1 11.3 0.00 0.00 0.00 75 1015.2
20260505212504 49 36 7.0 13.0 0.00 0.00 0.00 75 1015.2
20260505212003 49 35 7.0 14.8 0.00 0.00 0.00 75 1015.2
20260505211504 49 35 6.1 14.8 0.00 0.00 0.00 75 1015.1
20260505211004 49 30 6.1 12.2 0.00 0.00 0.00 76 1015.1
20260505210503 49 29 6.1 12.2 0.00 0.00 0.00 76 1015.2
20260505210004 49 32 6.1 12.2 0.00 0.00 0.00 76 1015.1
20260505205717 50 31 6.1 12.2 0.00 0.00 0.00 76 1015.1
20260505205003 50 29 5.2 13.0 0.00 0.00 0.00 77 1015.1
20260505204503 50 35 6.1 14.8 0.00 0.00 0.00 77 1015.0
20260505204003 50 36 6.1 14.8 0.00 0.00 0.00 77 1015.0
20260505203503 50 33 5.2 13.0 0.00 0.00 0.00 77 1015.0
20260505203217 50 36 6.1 13.0 0.00 0.00 0.00 77 1014.9
20260505202503 50 34 7.0 13.0 0.00 0.00 0.00 76 1014.9
20260505202003 50 32 7.0 11.3 0.00 0.00 0.00 76 1014.9
20260505201504 50 30 6.1 11.3 0.00 0.00 0.00 76 1014.8
20260505201214 50 30 5.2 11.3 0.00 0.00 0.00 76 1014.8
20260505200504 50 37 5.2 11.3 0.00 0.00 0.00 76 1014.7
20260505200003 51 38 5.2 11.3 0.00 0.00 0.00 76 1014.6
20260505195503 51 37 4.3 10.4 0.00 0.00 0.00 75 1014.6
20260505195003 51 38 4.3 9.6 0.00 0.00 0.00 74 1014.5
20260505194503 51 38 5.2 9.6 0.00 0.00 0.00 74 1014.5
20260505194003 51 41 5.2 8.7 0.00 0.00 0.00 74 1014.5
20260505193503 51 36 5.2 9.6 0.00 0.00 0.00 73 1014.5
20260505193218 51 35 5.2 9.6 0.00 0.00 0.00 72 1014.5
20260505192504 51 34 5.2 9.6 0.00 0.00 0.00 73 1014.4
20260505192213 51 34 6.1 11.3 0.00 0.00 0.00 72 1014.3
20260505191503 52 37 5.2 11.3 0.00 0.00 0.00 74 1014.3
20260505191003 52 34 5.2 9.6 0.00 0.00 0.00 77 1014.2
20260505190503 52 42 6.1 13.0 0.00 0.00 0.00 76 1014.2
20260505190215 52 43 7.0 13.0 0.00 0.00 0.00 76 1014.1
20260505185718 52 41 7.0 12.2 0.00 0.00 0.00 77 1014.1
20260505185003 52 34 6.1 11.3 0.00 0.00 0.00 77 1013.9
20260505184503 52 33 6.1 14.8 0.00 0.00 0.00 77 1013.9
20260505184003 53 34 5.2 14.8 0.00 0.00 0.00 77 1013.9
20260505183715 53 34 5.2 13.9 0.00 0.00 0.00 77 1013.8
20260505183003 53 39 6.1 13.9 0.00 0.00 0.00 76 1013.8
20260505182716 53 43 5.2 13.0 0.00 0.00 0.00 76 1013.8
20260505182003 54 43 4.3 9.6 0.00 0.00 0.00 76 1013.8
20260505181503 54 42 4.3 11.3 0.00 0.00 0.00 76 1013.8
20260505181215 54 45 5.2 11.3 0.00 0.00 0.00 76 1013.8
20260505180713 54 49 4.3 11.3 0.00 0.00 0.00 76 1013.7
20260505180003 54 40 6.1 13.0 0.00 0.00 0.00 76 1013.8
20260505175504 54 36 7.0 13.0 0.00 0.00 0.00 75 1013.8
20260505175003 54 36 6.1 13.0 0.00 0.00 0.00 75 1013.8
20260505174504 54 37 6.1 12.2 0.00 0.00 0.00 76 1013.8
20260505174003 54 37 7.0 12.2 0.00 0.00 0.00 75 1013.7
20260505173503 54 35 7.0 13.9 0.00 0.00 0.00 74 1013.7
20260505173003 55 35 7.8 14.8 0.00 0.00 0.00 74 1013.7
20260505172504 55 41 7.8 14.8 0.00 0.00 0.00 74 1013.7
20260505172003 55 41 7.0 13.9 0.00 0.00 0.00 72 1013.7
20260505171503 55 29 7.0 11.3 0.00 0.00 0.00 73 1013.7
20260505171004 55 28 6.1 13.0 0.00 0.00 0.00 74 1013.6
20260505170503 55 36 7.8 13.9 0.00 0.00 0.00 74 1013.7
20260505170216 55 36 7.8 15.6 0.00 0.00 0.00 73 1013.6
20260505165503 56 34 8.7 15.6 0.00 0.00 0.00 72 1013.6
20260505165003 56 32 7.8 15.6 0.00 0.00 0.00 71 1013.6
20260505164503 57 35 8.7 15.6 0.00 0.00 0.00 70 1013.5
20260505164003 58 37 8.7 18.2 0.00 0.00 0.00 69 1013.4
20260505163504 58 32 8.7 18.2 0.00 0.00 0.00 68 1013.3
20260505163004 59 16 6.1 13.0 0.00 0.00 0.00 66 1013.3
20260505162503 59 5 5.2 9.6 0.00 0.00 0.00 59 1013.2
20260505161503 59 16 6.1 13.0 0.00 0.00 0.00 57 1013.1
20260505161003 60 15 6.1 12.2 0.00 0.00 0.00 58 1013.1
20260505160504 60 10 5.2 12.2 0.00 0.00 0.00 57 1013.1
20260505160217 60 8 5.2 12.2 0.00 0.00 0.00 55 1013.1
20260505153004 60 4 4.3 9.6 0.00 0.00 0.00 56 1013.2
20260505152504 60 357 4.3 9.6 0.00 0.00 0.00 56 1013.1
20260505152004 60 358 4.3 9.6 0.00 0.00 0.00 55 1013.2
20260505151503 60 1 4.3 10.4 0.00 0.00 0.00 56 1013.2
20260505151004 61 358 4.3 10.4 0.00 0.00 0.00 54 1013.2
20260505150715 61 1 3.5 9.6 0.00 0.00 0.00 56 1013.2
20260505130214 59 10 3.5 7.8 0.00 0.00 0.00 59 1013.4
20260505125004 59 8 4.3 8.7 0.00 0.00 0.00 60 1013.4
20260505124504 60 16 4.3 8.7 0.00 0.00 0.00 60 1013.4
20260505124004 60 19 4.3 8.7 0.00 0.00 0.00 61 1013.4
20260505123714 60 2 4.3 8.7 0.00 0.00 0.00 60 1013.4
20260505123003 60 2 4.3 8.7 0.00 0.00 0.00 60 1013.4
20260505122503 60 9 4.3 9.6 0.00 0.00 0.00 60 1013.3
20260505122004 60 6 4.3 9.6 0.00 0.00 0.00 59 1013.3
20260505121504 60 12 3.5 7.8 0.00 0.00 0.00 62 1013.3
20260505121004 60 21 3.5 7.8 0.00 0.00 0.00 60 1013.3
20260505120503 60 24 3.5 7.0 0.00 0.00 0.00 60 1013.3
20260505120004 59 354 3.5 7.8 0.00 0.00 0.00 61 1013.3
20260505115504 59 348 3.5 7.8 0.00 0.00 0.00 61 1013.3
20260505115003 60 3 3.5 7.8 0.00 0.00 0.00 59 1013.3
20260505114503 60 16 2.6 7.8 0.00 0.00 0.00 61 1013.4
20260505114216 60 15 2.6 7.0 0.00 0.00 0.00 60 1013.3